Location: Iesi
(43.5167°N, 13.2333°E)
Time: 01:36:41
(UTC+00:00)

SL-16 R/B - Pass Details

Date: 08 August 2020
Orbit: 985 x 1007 km, 99.5° (Epoch: 27 September)

Event Time Altitude Azimuth Distance (km) Brightness Sun altitude
Exits shadow 23:46:15 25° 103° (ESE) 1,911 3.9 -30.2°
Maximum altitude 23:48:44 34° 63° (ENE) 1,612 3.9 -30.1°
Drops below altitude 10° 23:54:14 10° 2° (N) 2,789 5.8 -29.9°
Sets 23:56:56 0° 353° (N) 3,740 6.6 -29.8°
